カタログに戻る

COSMOS 2251 DEB

運用中VLEO
NORAD 34955·DEBRIS·🇷🇺 Russia

打ち上げ Jun 16, 1993 から Plesetsk Cosmodrome

Loading…

次のパス (今後24時間)

TLE

最新Source: Space-Track

元期: Sep 14, 2026, 16:35 UTC

1 34955U 93036AEJ 26257.69157039  .00006320  00000-0  42460-3 0  9999
2 34955  74.0349  42.8500 0069774  39.0839 321.5360 15.04981472941802

AllMySatでCOSMOS 2251 DEBをリアルタイム追跡

Download on the App Store